TimeMST,TemperatureF,Dew PointF,Humidity,Sea Level PressureIn,VisibilityMPH,Wind Direction,Wind SpeedMPH,Gust SpeedMPH,PrecipitationIn,Events,Conditions,WindDirDegrees,DateUTC
12:53 AM,33.1,14.0,46,30.00,10.0,West,9.2,-,N/A,,Clear,270,2012-11-29 07:53:00
1:53 AM,30.9,12.0,46,30.00,10.0,WSW,9.2,-,N/A,,Clear,250,2012-11-29 08:53:00
2:53 AM,28.9,10.9,47,30.00,10.0,West,5.8,-,N/A,,Clear,280,2012-11-29 09:53:00
3:53 AM,25.0,10.0,53,30.01,10.0,WNW,6.9,-,N/A,,Clear,290,2012-11-29 10:53:00
4:53 AM,25.0,8.1,49,30.02,10.0,West,6.9,-,N/A,,Clear,260,2012-11-29 11:53:00
5:53 AM,27.0,9.0,47,30.03,10.0,West,6.9,-,N/A,,Clear,260,2012-11-29 12:53:00
6:53 AM,25.0,9.0,51,30.06,10.0,WNW,8.1,-,N/A,,Clear,290,2012-11-29 13:53:00
7:53 AM,35.1,9.0,34,30.07,10.0,WNW,8.1,-,N/A,,Clear,300,2012-11-29 14:53:00
8:53 AM,46.0,9.0,22,30.05,10.0,West,8.1,-,N/A,,Clear,280,2012-11-29 15:53:00
9:53 AM,57.9,9.0,14,30.01,10.0,West,3.5,-,N/A,,Clear,260,2012-11-29 16:53:00
10:53 AM,63.0,9.0,12,29.98,10.0,South,4.6,-,N/A,,Clear,180,2012-11-29 17:53:00
11:53 AM,66.9,8.1,10,29.94,10.0,South,8.1,-,N/A,,Clear,180,2012-11-29 18:53:00
12:53 PM,68.0,1.0,7,29.92,10.0,SSW,6.9,-,N/A,,Clear,200,2012-11-29 19:53:00
1:53 PM,69.1,-0.0,6,29.92,10.0,SSW,6.9,-,N/A,,Clear,200,2012-11-29 20:53:00
2:53 PM,68.0,-0.0,7,29.92,10.0,SW,6.9,-,N/A,,Clear,230,2012-11-29 21:53:00
3:53 PM,60.1,3.0,10,29.96,10.0,South,8.1,-,N/A,,Clear,190,2012-11-29 22:53:00
4:53 PM,53.1,3.9,14,30.00,10.0,SSW,8.1,-,N/A,,Clear,200,2012-11-29 23:53:00
5:53 PM,53.1,5.0,14,30.01,10.0,SSW,10.4,-,N/A,,Clear,200,2012-11-30 00:53:00
6:53 PM,51.1,6.1,16,30.03,10.0,SSW,10.4,-,N/A,,Clear,200,2012-11-30 01:53:00
7:53 PM,42.1,5.0,22,30.04,10.0,SW,8.1,-,N/A,,Clear,230,2012-11-30 02:53:00
8:53 PM,43.0,3.9,20,30.02,10.0,WSW,10.4,-,N/A,,Clear,240,2012-11-30 03:53:00
9:53 PM,37.9,6.1,27,30.02,10.0,West,9.2,-,N/A,,Clear,280,2012-11-30 04:53:00
10:53 PM,35.1,6.1,30,30.02,10.0,WSW,6.9,-,N/A,,Clear,250,2012-11-30 05:53:00
11:53 PM,32.0,9.0,38,30.02,10.0,NW,6.9,-,N/A,,Clear,310,2012-11-30 06:53:00